QPF
0.00 0.00 0.01 0.01 0.02 0.02 0.02 0.03 0.03 0.02 0.02 0.02 0.02 0.02 0.02 0.02 0.02 0.02 0.02 0.01 0.01 0.02 0.02 0.01 0.01 0.01 0.01 0.01 0.01 0.01 0.01 0.01 0.01 0.01 0.01 0.01 0.01 0.01 0.01 0.01 0.01 0.01 0.01
0.00 0.00 0.01 0.01 0.02 0.03 0.03 0.03 0.03 0.03 0.02 0.02 0.02 0.02 0.02 0.02 0.02 0.02 0.01 0.01 0.01 0.01 0.02 0.02 0.01 0.02 0.02 0.01 0.01 0.01 0.01 0.01 0.01 0.01 0.01 0.01 0.02 0.02 0.01 0.01 0.01 0.01 0.02
0.00 0.00 0.01 0.01 0.02 0.03 0.04 0.04 0.03 0.03 0.03 0.03 0.03 0.03 0.03 0.03 0.03 0.02 0.02 0.02 0.01 0.02 0.02 0.02 0.01 0.01 0.01 0.01 0.01 0.01 0.01 0.01 0.01 0.00 0.00 0.00 0.02 0.03 0.02 0.02 0.02 0.03 0.03
0.00 0.00 0.01 0.01 0.02 0.03 0.04 0.04 0.05 0.04 0.04 0.04 0.05 0.05 0.04 0.04 0.03 0.03 0.03 0.02 0.02 0.02 0.02 0.01 0.01 0.01 0.01 0.01 0.01 0.01 0.00 0.00 0.00 0.00 0.00 0.00 0.02 0.04 0.03 0.02 0.03 0.03 0.03
0.00 0.00 0.01 0.02 0.02 0.04 0.05 0.05 0.06 0.06 0.06 0.06 0.06 0.06 0.06 0.05 0.04 0.04 0.03 0.03 0.03 0.02 0.02 0.01 0.01 0.01 0.01 0.00 0.01 0.01 0.00 0.00 0.00 0.00 0.00 0.00 0.01 0.04 0.04 0.03 0.03 0.03 0.01
0.00 0.00 0.01 0.02 0.03 0.04 0.05 0.07 0.07 0.08 0.07 0.07 0.07 0.08 0.07 0.06 0.06 0.06 0.04 0.04 0.03 0.03 0.02 0.02 0.01 0.01 0.00 0.00 0.01 0.01 0.01 0.00 0.00 0.00 0.00 0.00 0.01 0.04 0.04 0.03 0.02 0.01 0.01
0.00 0.01 0.01 0.03 0.04 0.05 0.06 0.07 0.08 0.09 0.09 0.09 0.09 0.09 0.09 0.08 0.08 0.08 0.06 0.05 0.04 0.03 0.03 0.02 0.01 0.01 0.00 0.00 0.01 0.01 0.00 0.00 0.00 0.00 0.00 0.00 0.01 0.03 0.03 0.02 0.01 0.01 0.01
0.00 0.01 0.01 0.03 0.05 0.06 0.07 0.07 0.08 0.09 0.10 0.11 0.12 0.11 0.11 0.11 0.10 0.09 0.07 0.05 0.05 0.04 0.03 0.02 0.01 0.01 0.00 0.01 0.01 0.00 0.00 0.00 0.00 0.00 0.00 0.01 0.02 0.03 0.03 0.02 0.01 0.01 0.01
0.01 0.02 0.02 0.03 0.04 0.06 0.07 0.08 0.09 0.09 0.11 0.13 0.14 0.14 0.15 0.15 0.14 0.13 0.10 0.08 0.07 0.06 0.04 0.03 0.02 0.01 0.01 0.01 0.01 0.00 0.00 0.00 0.00 0.00 0.00 0.01 0.02 0.02 0.02 0.02 0.01 0.01 0.01
0.02 0.03 0.03 0.03 0.04 0.05 0.06 0.07 0.09 0.09 0.12 0.14 0.15 0.16 0.18 0.21 0.20 0.18 0.15 0.11 0.08 0.07 0.06 0.04 0.02 0.01 0.01 0.01 0.00 0.00 0.00 0.00 0.00 0.00 0.00 0.01 0.02 0.02 0.02 0.01 0.01 0.01 0.01
0.02 0.03 0.03 0.04 0.04 0.05 0.05 0.06 0.08 0.10 0.12 0.13 0.15 0.14 0.16 0.19 0.20 0.18 0.16 0.15 0.12 0.08 0.06 0.04 0.03 0.02 0.01 0.01 0.00 0.00 0.00 0.00 0.00 0.00 0.00 0.01 0.02 0.02 0.02 0.02 0.01 0.01 0.01
0.02 0.03 0.04 0.04 0.05 0.05 0.06 0.08 0.09 0.09 0.10 0.12 0.12 0.13 0.14 0.15 0.18 0.19 0.17 0.15 0.13 0.10 0.06 0.04 0.03 0.02 0.01 0.00 0.00 0.00 0.00 0.00 0.00 0.00 0.00 0.01 0.01 0.02 0.02 0.01 0.01 0.01 0.01
0.02 0.03 0.05 0.06 0.06 0.06 0.07 0.08 0.09 0.09 0.09 0.10 0.12 0.13 0.14 0.15 0.17 0.19 0.20 0.20 0.16 0.12 0.08 0.05 0.04 0.02 0.01 0.00 0.00 0.00 0.00 0.00 0.00 0.00 0.00 0.01 0.01 0.02 0.02 0.02 0.01 0.01 0.01
0.02 0.02 0.04 0.05 0.06 0.07 0.07 0.08 0.11 0.11 0.10 0.09 0.11 0.14 0.15 0.14 0.15 0.17 0.18 0.19 0.18 0.13 0.08 0.05 0.04 0.03 0.02 0.01 0.00 0.00 0.00 0.00 0.00 0.00 0.00 0.01 0.01 0.02 0.02 0.02 0.02 0.01 0.01
0.02 0.02 0.02 0.05 0.06 0.07 0.08 0.08 0.10 0.12 0.12 0.09 0.11 0.13 0.15 0.14 0.14 0.16 0.18 0.18 0.17 0.14 0.10 0.06 0.04 0.03 0.02 0.01 0.01 0.00 0.00 0.00 0.00 0.00 0.00 0.01 0.01 0.01 0.02 0.02 0.02 0.01 0.01
0.03 0.03 0.03 0.03 0.06 0.07 0.08 0.09 0.09 0.09 0.12 0.11 0.10 0.11 0.13 0.14 0.14 0.16 0.17 0.19 0.19 0.16 0.12 0.09 0.06 0.04 0.02 0.01 0.01 0.00 0.00 0.00 0.00 0.00 0.00 0.00 0.01 0.01 0.02 0.02 0.02 0.02 0.01
0.03 0.04 0.04 0.03 0.06 0.07 0.08 0.09 0.09 0.08 0.08 0.11 0.11 0.11 0.12 0.15 0.14 0.16 0.18 0.18 0.19 0.19 0.15 0.12 0.09 0.06 0.04 0.02 0.01 0.00 0.00 0.00 0.00 0.00 0.00 0.00 0.00 0.01 0.01 0.02 0.02 0.02 0.02
0.03 0.04 0.05 0.05 0.04 0.07 0.08 0.08 0.10 0.10 0.08 0.09 0.11 0.12 0.12 0.13 0.15 0.16 0.17 0.17 0.18 0.19 0.19 0.16 0.13 0.08 0.05 0.04 0.03 0.02 0.01 0.01 0.00 0.00 0.00 0.00 0.00 0.00 0.01 0.01 0.01 0.02 0.02
0.03 0.03 0.04 0.05 0.05 0.06 0.07 0.08 0.09 0.10 0.10 0.09 0.10 0.12 0.12 0.11 0.12 0.15 0.17 0.18 0.21 0.23 0.22 0.19 0.15 0.12 0.08 0.05 0.03 0.02 0.01 0.01 0.01 0.01 0.00 0.00 0.00 0.00 0.00 0.01 0.01 0.01 0.01
0.02 0.03 0.04 0.05 0.05 0.06 0.07 0.09 0.10 0.11 0.11 0.11 0.10 0.10 0.13 0.13 0.12 0.12 0.14 0.17 0.20 0.25 0.25 0.22 0.18 0.13 0.10 0.06 0.04 0.02 0.01 0.01 0.00 0.00 0.00 0.00 0.00 0.00 0.00 0.00 0.00 0.00 0.01
0.02 0.03 0.04 0.05 0.05 0.06 0.08 0.09 0.09 0.11 0.11 0.11 0.11 0.10 0.11 0.13 0.14 0.15 0.14 0.16 0.18 0.21 0.24 0.22 0.19 0.16 0.12 0.09 0.06 0.05 0.03 0.02 0.01 0.00 0.00 0.00 0.00 0.00 0.00 0.00 0.00 0.00 0.00
0.02 0.03 0.04 0.04 0.05 0.06 0.07 0.08 0.08 0.09 0.10 0.10 0.11 0.12 0.12 0.13 0.15 0.16 0.16 0.17 0.18 0.19 0.23 0.22 0.19 0.18 0.15 0.11 0.08 0.07 0.05 0.04 0.02 0.01 0.00 0.00 0.00 0.00 0.00 0.00 0.00 0.00 0.00
0.01 0.02 0.04 0.04 0.04 0.06 0.07 0.08 0.09 0.10 0.12 0.13 0.12 0.12 0.14 0.15 0.16 0.18 0.17 0.17 0.17 0.18 0.22 0.23 0.19 0.16 0.15 0.13 0.09 0.07 0.05 0.04 0.02 0.01 0.01 0.00 0.00 0.00 0.00 0.00 0.00 0.00 0.00
0.01 0.02 0.03 0.04 0.05 0.06 0.07 0.09 0.09 0.09 0.11 0.12 0.11 0.10 0.11 0.15 0.16 0.17 0.20 0.20 0.18 0.16 0.17 0.22 0.22 0.17 0.14 0.13 0.11 0.08 0.05 0.03 0.02 0.01 0.01 0.00 0.00 0.00 0.00 0.00 0.00 0.00 0.00
0.01 0.01 0.03 0.04 0.05 0.07 0.08 0.08 0.07 0.07 0.08 0.10 0.13 0.12 0.11 0.15 0.19 0.19 0.19 0.22 0.23 0.19 0.16 0.17 0.20 0.20 0.17 0.14 0.11 0.08 0.06 0.04 0.02 0.02 0.01 0.01 0.00 0.00 0.00 0.00 0.00 0.00 0.00
0.01 0.02 0.03 0.04 0.05 0.07 0.09 0.10 0.08 0.07 0.08 0.10 0.14 0.15 0.13 0.15 0.19 0.20 0.20 0.21 0.22 0.22 0.20 0.17 0.15 0.16 0.18 0.17 0.14 0.09 0.07 0.05 0.04 0.03 0.02 0.01 0.01 0.00 0.00 0.00 0.00 0.00 0.00
MSLP
1010.85 1009.94 1009.18 1008.65 1008.38 1008.33 1008.42 1008.57 1008.68 1008.70 1008.63 1008.48 1008.33 1008.21 1008.18 1008.24 1008.37 1008.54 1008.71 1008.84 1008.91 1008.95 1008.97 1009.03 1009.15 1009.33 1009.57 1009.85 1010.13 1010.37 1010.57 1010.73 1010.85 1010.98 1011.13 1011.31 1011.53 1011.77 1012.00 1012.21 1012.36 1012.47 1012.53
1011.08 1010.18 1009.41 1008.88 1008.60 1008.53 1008.60 1008.73 1008.82 1008.82 1008.73 1008.57 1008.41 1008.28 1008.24 1008.28 1008.40 1008.56 1008.71 1008.84 1008.92 1008.97 1009.02 1009.09 1009.21 1009.38 1009.60 1009.84 1010.06 1010.25 1010.41 1010.53 1010.64 1010.76 1010.92 1011.12 1011.37 1011.63 1011.88 1012.10 1012.28 1012.41 1012.50
1011.21 1010.34 1009.61 1009.10 1008.83 1008.77 1008.84 1008.95 1009.02 1009.01 1008.91 1008.74 1008.56 1008.41 1008.33 1008.33 1008.40 1008.51 1008.62 1008.72 1008.79 1008.85 1008.93 1009.03 1009.19 1009.39 1009.61 1009.84 1010.04 1010.20 1010.31 1010.40 1010.48 1010.60 1010.75 1010.96 1011.21 1011.48 1011.75 1011.98 1012.18 1012.34 1012.47
1011.27 1010.47 1009.80 1009.34 1009.11 1009.07 1009.14 1009.24 1009.30 1009.28 1009.16 1008.97 1008.76 1008.58 1008.44 1008.38 1008.37 1008.39 1008.43 1008.48 1008.54 1008.61 1008.72 1008.88 1009.09 1009.35 1009.63 1009.88 1010.09 1010.24 1010.34 1010.40 1010.45 1010.54 1010.67 1010.86 1011.09 1011.36 1011.62 1011.87 1012.09 1012.28 1012.44
1011.32 1010.61 1010.03 1009.65 1009.47 1009.44 1009.51 1009.60 1009.63 1009.58 1009.44 1009.23 1008.99 1008.76 1008.56 1008.41 1008.30 1008.23 1008.18 1008.17 1008.19 1008.26 1008.42 1008.65 1008.95 1009.30 1009.66 1009.98 1010.23 1010.40 1010.49 1010.54 1010.56 1010.60 1010.69 1010.84 1011.04 1011.28 1011.53 1011.78 1012.02 1012.24 1012.45
1011.41 1010.82 1010.35 1010.05 1009.91 1009.90 1009.95 1009.99 1009.99 1009.89 1009.72 1009.48 1009.21 1008.94 1008.68 1008.45 1008.24 1008.07 1007.92 1007.82 1007.80 1007.87 1008.06 1008.37 1008.77 1009.23 1009.70 1010.11 1010.43 1010.65 1010.75 1010.79 1010.78 1010.77 1010.81 1010.90 1011.05 1011.25 1011.48 1011.73 1011.98 1012.23 1012.47
1011.57 1011.11 1010.75 1010.53 1010.43 1010.41 1010.41 1010.40 1010.32 1010.17 1009.96 1009.69 1009.40 1009.10 1008.80 1008.50 1008.21 1007.94 1007.69 1007.51 1007.43 1007.48 1007.70 1008.07 1008.56 1009.14 1009.71 1010.23 1010.64 1010.91 1011.05 1011.08 1011.05 1011.00 1010.98 1011.01 1011.11 1011.26 1011.46 1011.70 1011.96 1012.23 1012.51
1011.79 1011.46 1011.22 1011.07 1010.98 1010.93 1010.87 1010.77 1010.61 1010.39 1010.13 1009.84 1009.55 1009.24 1008.93 1008.59 1008.24 1007.88 1007.54 1007.26 1007.11 1007.13 1007.34 1007.75 1008.32 1008.98 1009.67 1010.29 1010.79 1011.13 1011.31 1011.35 1011.31 1011.23 1011.16 1011.13 1011.17 1011.28 1011.46 1011.68 1011.95 1012.24 1012.56
1012.02 1011.82 1011.68 1011.59 1011.51 1011.42 1011.27 1011.07 1010.82 1010.53 1010.23 1009.94 1009.66 1009.37 1009.07 1008.72 1008.33 1007.90 1007.47 1007.11 1006.87 1006.83 1007.01 1007.42 1008.03 1008.76 1009.53 1010.24 1010.82 1011.23 1011.46 1011.54 1011.49 1011.39 1011.29 1011.23 1011.23 1011.30 1011.45 1011.67 1011.94 1012.25 1012.59
1012.20 1012.12 1012.08 1012.03 1011.95 1011.81 1011.58 1011.29 1010.95 1010.60 1010.28 1009.99 1009.73 1009.49 1009.21 1008.88 1008.47 1007.99 1007.49 1007.03 1006.71 1006.58 1006.71 1007.09 1007.70 1008.46 1009.29 1010.07 1010.73 1011.21 1011.50 1011.61 1011.59 1011.49 1011.37 1011.29 1011.26 1011.31 1011.44 1011.64 1011.92 1012.24 1012.59
1012.28 1012.31 1012.34 1012.34 1012.26 1012.07 1011.78 1011.42 1011.01 1010.62 1010.28 1010.01 1009.79 1009.59 1009.36 1009.05 1008.64 1008.12 1007.56 1007.02 1006.60 1006.38 1006.43 1006.76 1007.35 1008.12 1008.97 1009.81 1010.53 1011.08 1011.43 1011.60 1011.61 1011.53 1011.41 1011.32 1011.28 1011.31 1011.42 1011.62 1011.88 1012.21 1012.57
1012.25 1012.35 1012.45 1012.48 1012.41 1012.21 1011.88 1011.46 1011.02 1010.61 1010.27 1010.02 1009.84 1009.69 1009.50 1009.21 1008.80 1008.26 1007.63 1007.02 1006.51 1006.21 1006.18 1006.45 1007.00 1007.76 1008.64 1009.51 1010.29 1010.90 1011.32 1011.54 1011.60 1011.55 1011.45 1011.35 1011.30 1011.32 1011.42 1011.60 1011.85 1012.17 1012.53
1012.10 1012.25 1012.40 1012.48 1012.42 1012.22 1011.89 1011.46 1011.01 1010.59 1010.26 1010.03 1009.88 1009.76 1009.60 1009.33 1008.91 1008.35 1007.69 1007.02 1006.44 1006.06 1005.96 1006.17 1006.68 1007.43 1008.32 1009.22 1010.05 1010.73 1011.21 1011.49 1011.60 1011.59 1011.51 1011.42 1011.36 1011.36 1011.44 1011.59 1011.83 1012.13 1012.48
1011.87 1012.06 1012.24 1012.35 1012.33 1012.15 1011.84 1011.43 1010.99 1010.58 1010.26 1010.05 1009.91 1009.80 1009.64 1009.37 1008.94 1008.36 1007.68 1006.97 1006.35 1005.92 1005.77 1005.94 1006.41 1007.15 1008.04 1008.98 1009.86 1010.60 1011.14 1011.49 1011.65 1011.67 1011.61 1011.52 1011.46 1011.44 1011.49 1011.61 1011.82 1012.09 1012.42
1011.62 1011.82 1012.02 1012.16 1012.17 1012.04 1011.77 1011.40 1010.99 1010.60 1010.29 1010.07 1009.92 1009.79 1009.61 1009.32 1008.88 1008.29 1007.58 1006.85 1006.21 1005.75 1005.57 1005.71 1006.17 1006.90 1007.80 1008.77 1009.70 1010.49 1011.11 1011.51 1011.73 1011.79 1011.75 1011.67 1011.59 1011.55 1011.56 1011.66 1011.82 1012.06 1012.36
1011.40 1011.58 1011.79 1011.94 1011.99 1011.91 1011.70 1011.38 1011.01 1010.64 1010.33 1010.08 1009.89 1009.72 1009.49 1009.17 1008.71 1008.10 1007.39 1006.67 1006.02 1005.55 1005.36 1005.48 1005.92 1006.64 1007.55 1008.54 1009.51 1010.37 1011.05 1011.53 1011.81 1011.91 1011.90 1011.82 1011.73 1011.67 1011.65 1011.71 1011.84 1012.04 1012.31
1011.23 1011.38 1011.57 1011.74 1011.83 1011.80 1011.64 1011.37 1011.04 1010.69 1010.36 1010.08 1009.83 1009.59 1009.31 1008.94 1008.45 1007.83 1007.13 1006.41 1005.76 1005.30 1005.09 1005.19 1005.60 1006.30 1007.21 1008.23 1009.24 1010.16 1010.91 1011.47 1011.81 1011.97 1012.00 1011.94 1011.85 1011.77 1011.73 1011.76 1011.86 1012.03 1012.27
1011.10 1011.23 1011.40 1011.57 1011.68 1011.69 1011.59 1011.37 1011.07 1010.73 1010.38 1010.05 1009.74 1009.43 1009.08 1008.66 1008.14 1007.52 1006.82 1006.10 1005.46 1004.98 1004.75 1004.81 1005.18 1005.85 1006.74 1007.76 1008.80 1009.78 1010.61 1011.25 1011.69 1011.93 1012.01 1011.99 1011.91 1011.83 1011.78 1011.79 1011.87 1012.02 1012.23
1011.02 1011.11 1011.26 1011.43 1011.55 1011.60 1011.54 1011.36 1011.09 1010.75 1010.38 1010.00 1009.62 1009.24 1008.84 1008.37 1007.83 1007.20 1006.50 1005.79 1005.14 1004.63 1004.34 1004.34 1004.65 1005.25 1006.09 1007.10 1008.17 1009.20 1010.12 1010.86 1011.40 1011.73 1011.90 1011.94 1011.90 1011.84 1011.79 1011.79 1011.86 1011.99 1012.19
1010.94 1011.00 1011.13 1011.29 1011.43 1011.50 1011.47 1011.33 1011.08 1010.75 1010.36 1009.94 1009.51 1009.07 1008.62 1008.12 1007.55 1006.92 1006.22 1005.50 1004.82 1004.27 1003.91 1003.81 1004.01 1004.52 1005.29 1006.26 1007.34 1008.42 1009.42 1010.28 1010.94 1011.39 1011.66 1011.78 1011.80 1011.77 1011.74 1011.75 1011.81 1011.94 1012.13
1010.84 1010.89 1011.01 1011.16 1011.30 1011.39 1011.39 1011.28 1011.05 1010.72 1010.32 1009.88 1009.41 1008.94 1008.45 1007.93 1007.36 1006.72 1006.02 1005.28 1004.56 1003.93 1003.48 1003.26 1003.33 1003.71 1004.39 1005.30 1006.37 1007.49 1008.57 1009.54 1010.33 1010.91 1011.30 1011.52 1011.61 1011.63 1011.64 1011.66 1011.73 1011.85 1012.03
1010.72 1010.77 1010.87 1011.01 1011.15 1011.25 1011.27 1011.18 1010.98 1010.67 1010.27 1009.82 1009.34 1008.85 1008.35 1007.83 1007.26 1006.63 1005.92 1005.16 1004.39 1003.68 1003.11 1002.75 1002.67 1002.91 1003.47 1004.30 1005.34 1006.48 1007.64 1008.71 1009.62 1010.34 1010.84 1011.17 1011.34 1011.42 1011.46 1011.50 1011.58 1011.71 1011.88
1010.59 1010.63 1010.71 1010.83 1010.96 1011.07 1011.11 1011.05 1010.88 1010.59 1010.21 1009.77 1009.30 1008.82 1008.32 1007.81 1007.25 1006.63 1005.92 1005.14 1004.33 1003.53 1002.84 1002.35 1002.11 1002.20 1002.62 1003.36 1004.34 1005.49 1006.68 1007.83 1008.86 1009.69 1010.31 1010.72 1010.98 1011.12 1011.19 1011.26 1011.35 1011.48 1011.66
1010.45 1010.47 1010.53 1010.62 1010.74 1010.84 1010.89 1010.86 1010.72 1010.47 1010.13 1009.71 1009.26 1008.80 1008.33 1007.83 1007.30 1006.69 1005.99 1005.21 1004.35 1003.49 1002.70 1002.07 1001.69 1001.63 1001.91 1002.54 1003.45 1004.56 1005.76 1006.96 1008.06 1008.97 1009.69 1010.19 1010.52 1010.71 1010.83 1010.92 1011.02 1011.17 1011.36
1010.31 1010.30 1010.31 1010.37 1010.45 1010.55 1010.61 1010.60 1010.50 1010.30 1010.00 1009.62 1009.21 1008.77 1008.32 1007.86 1007.35 1006.77 1006.09 1005.31 1004.44 1003.53 1002.66 1001.92 1001.41 1001.21 1001.36 1001.86 1002.67 1003.71 1004.89 1006.10 1007.23 1008.20 1008.98 1009.56 1009.94 1010.19 1010.35 1010.47 1010.60 1010.76 1010.97
1010.15 1010.08 1010.04 1010.04 1010.09 1010.17 1010.24 1010.26 1010.20 1010.05 1009.80 1009.47 1009.09 1008.69 1008.27 1007.84 1007.36 1006.81 1006.16 1005.39 1004.52 1003.60 1002.68 1001.87 1001.26 1000.93 1000.95 1001.31 1002.01 1002.96 1004.07 1005.24 1006.37 1007.37 1008.19 1008.82 1009.26 1009.57 1009.77 1009.94 1010.10 1010.30 1010.53
Thickness
5756 5761 5764 5766 5766 5766 5766 5766 5765 5765 5765 5765 5765 5764 5764 5763 5762 5761 5760 5759 5758 5757 5756 5755 5753 5752 5751 5749 5747 5746 5744 5742 5741 5739 5738 5736 5734 5732 5730 5728 5726 5725 5723
5754 5757 5759 5761 5761 5762 5762 5762 5761 5761 5761 5761 5761 5760 5760 5759 5758 5757 5756 5756 5755 5754 5753 5751 5750 5749 5748 5746 5744 5742 5741 5739 5737 5736 5734 5733 5731 5729 5727 5725 5723 5721 5719
5749 5752 5755 5756 5756 5757 5757 5757 5757 5757 5756 5756 5756 5756 5755 5754 5754 5753 5752 5752 5751 5750 5749 5748 5747 5745 5744 5742 5741 5739 5737 5735 5733 5732 5730 5729 5727 5726 5723 5721 5719 5717 5715
5744 5746 5748 5750 5751 5752 5752 5752 5753 5752 5752 5752 5752 5751 5751 5750 5750 5749 5748 5748 5747 5746 5745 5744 5742 5741 5740 5738 5737 5735 5733 5731 5729 5728 5726 5725 5724 5722 5720 5718 5715 5713 5711
5738 5741 5742 5744 5745 5746 5746 5747 5747 5747 5747 5747 5747 5747 5746 5746 5746 5745 5744 5744 5743 5742 5740 5739 5738 5736 5735 5734 5732 5731 5729 5727 5725 5723 5722 5721 5720 5718 5717 5714 5711 5709 5706
5730 5733 5736 5737 5739 5740 5741 5741 5741 5742 5742 5743 5743 5743 5742 5742 5741 5741 5740 5739 5738 5737 5736 5735 5733 5731 5730 5729 5728 5727 5725 5722 5720 5719 5718 5716 5715 5714 5712 5710 5707 5705 5702
5723 5726 5728 5730 5732 5733 5734 5735 5736 5736 5737 5738 5738 5738 5737 5737 5737 5736 5735 5734 5734 5733 5732 5731 5729 5727 5725 5724 5723 5722 5720 5718 5716 5715 5713 5712 5711 5710 5708 5705 5703 5701 5698
5715 5718 5721 5723 5725 5726 5728 5728 5730 5731 5731 5733 5733 5733 5733 5732 5732 5732 5731 5730 5729 5729 5728 5726 5725 5723 5721 5720 5719 5717 5715 5713 5711 5710 5709 5708 5707 5706 5704 5701 5699 5696 5693
5706 5709 5712 5715 5717 5719 5720 5722 5723 5724 5726 5727 5727 5728 5728 5727 5727 5727 5726 5726 5725 5724 5723 5721 5720 5718 5717 5715 5714 5712 5709 5708 5707 5705 5704 5703 5702 5701 5699 5697 5694 5692 5689
5696 5700 5703 5706 5709 5711 5712 5714 5716 5717 5719 5720 5721 5722 5722 5722 5722 5722 5721 5721 5720 5719 5717 5716 5715 5714 5712 5710 5709 5707 5704 5702 5701 5700 5700 5699 5698 5697 5695 5692 5690 5687 5684
5686 5690 5693 5697 5700 5702 5705 5707 5708 5710 5711 5713 5714 5715 5715 5715 5716 5716 5715 5715 5715 5714 5712 5711 5710 5709 5707 5705 5703 5701 5699 5697 5696 5695 5695 5694 5693 5692 5690 5687 5684 5682 5679
5675 5680 5683 5686 5690 5693 5696 5698 5700 5702 5703 5705 5706 5707 5708 5708 5709 5709 5709 5709 5709 5708 5706 5705 5705 5703 5701 5699 5697 5695 5694 5692 5691 5690 5689 5689 5688 5687 5685 5682 5679 5677 5674
5666 5669 5673 5676 5679 5682 5685 5688 5690 5693 5695 5696 5697 5698 5699 5700 5701 5701 5701 5702 5702 5701 5700 5699 5698 5697 5695 5693 5691 5689 5688 5687 5686 5685 5684 5684 5683 5682 5680 5677 5674 5672 5669
5656 5659 5662 5665 5667 5670 5674 5677 5679 5681 5685 5687 5688 5689 5690 5691 5692 5693 5694 5694 5695 5695 5693 5692 5691 5690 5689 5687 5685 5683 5682 5681 5680 5680 5679 5678 5678 5677 5675 5673 5670 5667 5665
5644 5648 5651 5654 5656 5658 5661 5665 5668 5671 5673 5677 5679 5679 5681 5682 5683 5684 5685 5686 5687 5687 5687 5685 5684 5683 5682 5681 5679 5678 5676 5675 5675 5674 5673 5673 5672 5671 5670 5668 5666 5663 5661
5633 5636 5639 5642 5644 5646 5649 5652 5655 5659 5661 5664 5668 5669 5671 5673 5674 5675 5676 5677 5678 5679 5679 5679 5677 5676 5675 5675 5673 5672 5670 5669 5669 5668 5668 5667 5667 5666 5665 5664 5662 5659 5657
5621 5624 5626 5630 5632 5633 5636 5639 5643 5646 5649 5651 5655 5657 5660 5662 5664 5666 5668 5668 5669 5670 5671 5670 5669 5667 5668 5668 5666 5665 5664 5663 5662 5662 5662 5662 5661 5661 5660 5658 5657 5655 5652
5608 5611 5613 5616 5618 5621 5623 5626 5630 5632 5635 5638 5642 5645 5647 5651 5653 5655 5657 5660 5661 5661 5662 5663 5662 5661 5660 5661 5660 5658 5657 5657 5656 5656 5656 5656 5655 5655 5654 5653 5651 5649 5647
5596 5598 5599 5601 5604 5607 5610 5613 5616 5619 5621 5625 5629 5632 5635 5639 5642 5644 5647 5650 5651 5651 5653 5654 5655 5654 5653 5653 5652 5651 5650 5650 5650 5650 5650 5650 5649 5649 5648 5647 5646 5644 5641
5583 5584 5584 5587 5589 5592 5595 5598 5602 5605 5607 5610 5615 5618 5623 5626 5629 5632 5635 5639 5642 5642 5643 5645 5646 5646 5646 5646 5644 5642 5642 5642 5643 5643 5644 5644 5644 5643 5642 5641 5640 5638 5636
5570 5571 5572 5573 5574 5575 5578 5581 5585 5589 5593 5596 5600 5604 5609 5613 5616 5620 5624 5628 5631 5632 5635 5637 5637 5638 5637 5637 5633 5631 5631 5633 5635 5637 5637 5638 5638 5638 5637 5635 5634 5632 5630
5556 5558 5559 5559 5561 5562 5563 5566 5569 5574 5577 5581 5586 5590 5595 5599 5603 5608 5612 5617 5621 5622 5624 5628 5630 5630 5629 5631 5630 5625 5623 5623 5627 5631 5631 5632 5632 5632 5631 5630 5628 5627 5625
5544 5545 5547 5547 5549 5549 5550 5551 5554 5557 5560 5565 5571 5576 5581 5585 5591 5596 5601 5605 5610 5613 5616 5620 5623 5625 5623 5622 5626 5626 5623 5624 5623 5623 5625 5627 5627 5626 5626 5625 5623 5621 5619
5533 5533 5533 5534 5536 5536 5536 5537 5539 5543 5547 5552 5556 5562 5567 5572 5578 5584 5589 5595 5600 5604 5607 5611 5614 5617 5618 5617 5617 5620 5623 5625 5621 5618 5618 5619 5620 5621 5621 5620 5618 5616 5614
5522 5521 5521 5522 5523 5524 5524 5525 5527 5531 5534 5538 5543 5548 5555 5560 5566 5572 5578 5583 5589 5594 5598 5602 5604 5609 5613 5614 5614 5613 5613 5615 5616 5617 5615 5613 5612 5615 5615 5615 5613 5611 5609
5510 5509 5509 5509 5511 5512 5513 5515 5517 5519 5523 5526 5531 5537 5544 5550 5555 5561 5568 5573 5580 5585 5589 5593 5597 5602 5606 5608 5609 5610 5611 5612 5611 5611 5611 5609 5608 5609 5609 5608 5607 5606 5604